sat.trackr.live / text

‹ back to catalog

SITRO-AIS 11 (SHEFFER)

NORAD 57208 · 2023-091AU

PAYLOAD ACTIVE UNKNOWN

§ Identity

Operator
Country
CIS
Launch date
2023-06-27
Launch site
VOSTO
Launch vehicle
Mass (kg)
RCS (m²)

Purposes: tech_demo

External: N2YO · Heavens-Above · Gunter

§ Orbital elements

Epoch: 2026-09-19T22:04:36.373152Z

Period
93.38 min
Inclination
97.5001°
Eccentricity
0.0006953
Mean motion
15.42165764 rev/d
Perigee alt
435.0 km
Apogee alt
444.5 km
Semi-major
6,817.9 km
B*
3.7154e-4
RAAN
336.4020°
Arg perigee
89.2685°
Mean anomaly
270.9358°
Rev number
17,937

§ Raw data

SITRO-AIS 11 (SHEFFER)1 57208U 23091AU  26262.91986543  .00015861  00000+0  37154-3 0  99932 57208  97.5001 336.4020 0006953  89.2685 270.9358 15.42165764179377

JSON: /api/v1/satellites/57208 · /tle

For live sub-satellite position, see the globe view (requires WebGL).

§ Visibility from observer

Set your observer location to see the next 7 days of passes ≥ 10°. The values pass through the URL so the page stays shareable.

No JS? Fill the form by hand. The geolocation button needs JavaScript.

§ Radio — SatNOGS DB

ModeDescriptionDownlinkUplink
GMSK USP Mode U - GMSK USP 2K4 TLM 401.320 MHz

1 transmitter · refreshed weekly from db.satnogs.org